Weather observations for the past three days for
Cherry Point Marine Corps Air Station
Imperial (Metric)
Date Time (edt) Wind (mph) Vis. (mi.) Weather Sky Cond. Temperature (ºF) Relative Humidity Wind Chill (°F) Heat Index (°F) Pressure Precipitation (in)
Air Dwpt 6 hour altimeter (in) sea level (mb) 1 hr 3 hr 6 hr
Max. Min.
18 14:56 SW 13 G 26 10.00 Mostly Cloudy FEW030 BKN080 82.9 75 77% 90 29.99 1015.2
18 13:56 SW 15 G 26 10.00 A Few Clouds FEW029 FEW036 82.9 75.9 89.1 79 79% 91 30 1015.6
18 12:56 SW 17 G 33 10.00 Mostly Cloudy FEW024 BKN140 86 75.9 72% 96 29.99 1015.3
18 11:56 SW 16 G 29 10.00 Mostly Cloudy FEW030 SCT080 BKN160 86 73.9 67% 94 29.99 1015.2
18 10:56 SW 16 10.00 Mostly Cloudy FEW030 SCT110 BKN160 87.1 73.9 65% 95 30 1015.4
18 09:56 SW 14 G 22 10.00 Partly Cloudy FEW030 FEW080 SCT160 84 73.9 72% 91 29.99 1015.3
18 08:56 SW 9 10.00 Mostly Cloudy FEW030 SCT080 BKN160 81 75.9 85% 87 30 1015.6
18 07:56 SW 7 9.00 Mostly Cloudy BKN160 79 77 80.1 75 94% 83 30 1015.6
18 06:56 SE 3 9.00 Overcast SCT012 OVC070 75 75 100% 72 30 1015.4
18 05:56 Calm 10.00 Overcast SCT012 OVC070 75 73.9 96% 73 29.99 1015.1
18 04:56 W 5 10.00 Partly Cloudy SCT065 75.9 73.9 94% 75 29.98 1014.8
18 03:56 SW 6 10.00 A Few Clouds FEW060 75 73 94% 73 29.96 1014.2
18 02:56 SW 12 10.00 Mostly Cloudy FEW080 BKN100 75.9 72 88% 76 29.98 1014.7
18 01:56 SW 16 G 24 10.00 A Few Clouds FEW100 80.1 72 82 80.1 76% 84 29.97 1014.4
18 00:56 SW 13 G 21 10.00 Partly Cloudy SCT022 SCT030 82 77 85% 90 29.98 1014.8
17 23:56 SW 21 G 30 10.00 Mostly Cloudy and Breezy BKN018 82 78.1 88% 91 29.98 1015.0
17 22:56 SW 16 G 28 10.00 Mostly Cloudy SCT016 BKN023 BKN033 82 78.1 88% 91 30 1015.5
17 21:56 S 15 G 24 10.00 Overcast OVC021 81 77 88% 88 30 1015.4
17 20:56 SW 15 G 29 10.00 Mostly Cloudy BKN018 81 75.9 85% 87 29.99 1015.1
17 19:56 SW 17 G 25 10.00 Mostly Cloudy BKN019 80.1 75 84.9 80.1 85% 85 29.95 1013.8
17 18:56 SW 15 G 22 10.00 Partly Cloudy SCT018 81 75 82% 87 29.95 1014.0
17 17:56 SW 16 G 32 10.00 Mostly Cloudy BKN020 82 75.9 82% 89 29.96 1014.2
17 16:56 SW 17 G 28 10.00 Mostly Cloudy BKN020 84.9 75.9 75% 94 29.96 1014.3
17 15:56 SW 21 G 33 10.00 Mostly Cloudy and Breezy BKN016 84 75.9 77% 93 29.99 1015.3
17 14:56 S 13 G 23 10.00 Mostly Cloudy BKN016 81 75 82% 87 30 1015.5
17 13:56 S 13 G 22 10.00 Mostly Cloudy FEW036 SCT050 BKN060 82 78.1 87.1 75.9 88% 91 30.01 1015.9 0.03
17 12:56 S 10 10.00 Mostly Cloudy FEW036 SCT050 BKN060 80.1 77 90% 86 30.02 1016.2
17 11:56 S 7 8.00 Light Rain OVC023 77 75.9 96% 78 30.02 1016.1 0.03
17 10:56 SW 17 G 31 8.00 Thunderstorm Light Rain BKN023 77 73.9 90% 78 30.03 1016.7
17 09:56 SW 10 10.00 Mostly Cloudy FEW023 SCT029 BKN037 86 78.1 77% 98 30.02 1016.1
17 08:56 SW 12 10.00 Mostly Cloudy FEW020 SCT027 BKN034 84.9 78.1 80% 97 30.03 1016.4
17 07:56 SW 9 10.00 Fair CLR 82.9 78.1 82.9 80.1 85% 93 30.02 1016.1
17 06:56 SW 8 10.00 Fair CLR 81 78.1 91% 89 30.01 1015.9
17 05:56 S 8 10.00 A Few Clouds FEW021 80.1 77 90% 86 29.99 1015.4
17 04:56 SW 10 10.00 Fair CLR 80.1 77 90% 86 29.97 1014.6
17 03:56 SW 9 10.00 Fair CLR 80.1 77 90% 86 29.97 1014.6
17 02:56 SW 12 10.00 Fair CLR 81 77 88% 88 29.99 1015.1
17 01:56 SW 12 10.00 Fair CLR 81 77 84 81 88% 88 29.99 1015.2
17 00:56 SW 12 10.00 Fair CLR 82 77 85% 90 29.99 1015.3
16 23:56 SW 14 10.00 Fair CLR 82 77 85% 90 30 1015.5
16 22:56 SW 15 G 24 10.00 Fair CLR 82 78.1 88% 91 30 1015.5
16 21:56 SW 15 10.00 Fair CLR 82.9 78.1 85% 93 29.99 1015.4
16 20:56 S 15 G 24 10.00 A Few Clouds FEW200 82.9 78.1 85% 93 29.98 1014.8
16 19:56 SW 18 G 29 10.00 Partly Cloudy FEW050 SCT200 84 75.9 91 84 77% 93 29.97 1014.5
16 18:56 SW 15 G 26 10.00 Partly Cloudy FEW030 SCT200 84.9 77 77% 95 29.96 1014.3
16 17:56 S 16 G 29 10.00 A Few Clouds FEW022 87.1 78.1 75% 100 29.96 1014.0
16 16:56 S 15 G 28 10.00 Partly Cloudy FEW060 SCT200 88 78.1 73% 102 29.95 1013.8
16 15:56 SW 16 G 26 10.00 A Few Clouds FEW030 FEW150 89.1 78.1 70% 103 29.96 1014.1
16 14:56 S 13 G 24 10.00 A Few Clouds FEW025 89.1 79 72% 105 29.98 1014.8
16 13:56 SW 16 G 24 10.00 A Few Clouds FEW026 90 79 91 81 70% 106 29.98 1015.0
16 12:56 S 13 G 23 10.00 Partly Cloudy SCT025 89.1 79 72% 105 30 1015.5
16 11:56 SW 15 10.00 Partly Cloudy SCT025 89.1 79 72% 105 30 1015.7
16 10:56 S 16 G 22 10.00 A Few Clouds FEW120 FEW200 88 78.1 73% 102 30.01 1015.7
16 09:56 SW 16 10.00 A Few Clouds FEW050 87.1 75.9 70% 98 30.01 1016.0
16 08:56 SW 12 10.00 A Few Clouds FEW200 84.9 75 72% 93 30.02 1016.1
16 07:56 SW 9 10.00 Mostly Cloudy BKN150 81 75 82 80.1 82% 87 30.02 1016.1
16 06:56 SW 9 10.00 Partly Cloudy SCT150 80.1 77 90% 86 30 1015.7
16 05:56 SW 8 9.00 Fair CLR 80.1 79 97% 87 29.98 1015.0
16 04:56 SW 8 10.00 Fair CLR 81 80.1 97% 90 29.97 1014.4
16 03:56 SW 8 10.00 Fair CLR 81 79 94% 89 29.97 1014.4
16 02:56 SW 9 10.00 Fair CLR 81 78.1 91% 89 29.96 1014.2
16 01:56 SW 8 10.00 Fair CLR 82 78.1 82.9 82 88% 91 29.97 1014.6
16 00:56 SW 10 10.00 A Few Clouds FEW012 82.9 80.1 91% 95 29.99 1015.1
15 23:56 SW 9 10.00 Fair CLR 82 80.1 94% 93 29.99 1015.1
15 22:56 SW 5 10.00 Fair CLR 82 80.1 94% 93 29.98 1014.8
15 21:56 SW 9 10.00 Fair CLR 82.9 80.1 91% 95 29.98 1014.8
15 20:56 S 9 10.00 A Few Clouds FEW014 82.9 80.1 91% 95 29.96 1014.1
15 19:56 SW 12 10.00 Fair CLR 82.9 79 91.9 82.9 88% 94 29.98 1014.8
15 18:56 SW 12 G 21 10.00 Mostly Cloudy FEW030 FEW100 BKN200 84 79 85% 96 29.98 1014.9
15 17:56 SW 15 G 21 10.00 Partly Cloudy FEW030 SCT180 88 78.1 73% 102 29.94 1013.6
15 16:56 SW 10 10.00 Partly Cloudy FEW030 SCT100 89.1 81 77% 108 29.94 1013.6
15 15:56 Calm 10.00 Mostly Cloudy FEW030 BKN180 89.1 80.1 75% 106 29.98 1014.8
Date Time (edt) Wind (mph) Vis. (mi.) Weather Sky Cond. Air Dwpt Max. Min. Relative Humidity Wind Chill (°F) Heat Index (°F) altimeter (in) sea level (mb) 1 hr 3 hr 6 hr
6 hour
Temperature (ºF) Pressure Precipitation (in)